Total_Precipitation_Accumulation
2.14 3.44 1.55 0.66 0.29 0.17 0.27 0.15 0.13 0.23 0.39 0.55 0.65 0.83 0.65 0.38 0.25 0.08 0.07 0.13 0.24 0.27 0.39 1.12 1.62 2.05 1.61 0.90 0.86 0.87 1.20 1.44 1.30 0.95 0.80 0.78 0.63 0.60 0.42 0.41 0.57 0.38 0.52 0.55
2.24 1.72 0.65 0.56 0.41 0.21 0.47 0.28 0.26 0.42 0.42 0.34 0.41 0.66 0.66 0.44 0.29 0.10 0.05 0.07 0.12 0.24 0.55 0.84 1.07 2.09 2.75 1.81 1.19 1.18 0.99 0.86 1.26 1.39 0.92 0.99 1.01 1.02 0.76 0.70 0.60 0.63 0.73 0.85
1.79 1.26 0.79 0.89 0.54 0.33 0.29 0.18 0.29 0.62 0.61 0.35 0.19 0.32 0.46 0.35 0.12 0.06 0.04 0.04 0.06 0.16 0.46 0.87 0.81 1.00 1.40 2.19 1.62 1.38 1.92 1.31 1.04 1.66 1.63 1.49 1.83 1.71 1.36 0.83 0.60 0.80 1.13 1.44
1.80 1.16 1.09 1.15 0.60 0.24 0.16 0.15 0.56 0.50 0.59 0.51 0.26 0.28 0.27 0.30 0.22 0.07 0.02 0.03 0.06 0.13 0.33 0.67 0.95 0.79 0.77 0.97 1.47 1.20 1.68 1.60 1.39 1.56 2.20 1.97 1.61 1.61 1.45 1.50 1.51 1.68 1.80 2.09
1.72 1.27 1.56 1.20 0.61 0.23 0.19 0.19 0.45 0.62 0.79 0.82 0.32 0.60 0.30 0.23 0.30 0.20 0.06 0.09 0.15 0.27 0.37 0.40 0.63 0.94 0.90 0.68 1.25 1.36 1.43 1.46 1.31 1.41 1.65 2.27 2.16 1.56 1.32 1.45 1.50 1.55 1.61 1.82
1.29 1.55 1.48 0.84 0.69 0.35 0.30 0.42 0.66 0.96 1.15 1.29 0.68 0.74 0.54 0.39 0.50 0.38 0.17 0.14 0.31 0.44 0.46 0.53 0.65 0.64 0.54 0.49 0.79 1.27 1.03 1.12 1.03 1.23 1.18 1.61 2.31 2.22 1.74 1.50 1.43 1.45 1.71 1.70
1.94 1.66 1.17 0.84 1.13 1.01 1.31 1.56 1.84 1.62 1.53 0.93 0.57 0.75 0.69 0.63 0.38 0.49 0.39 0.33 0.61 0.94 0.86 1.01 0.82 0.64 0.52 0.35 0.73 1.05 0.95 1.07 0.93 1.21 1.37 1.16 1.58 2.18 2.20 2.08 2.08 1.92 1.74 1.69
1.68 1.96 1.43 1.10 1.31 1.86 1.40 1.19 1.34 0.86 0.60 0.37 0.25 0.52 0.80 0.62 0.44 0.46 0.44 0.89 1.27 1.64 1.32 1.52 1.83 1.43 1.07 0.81 0.98 0.93 0.77 1.11 1.11 1.14 1.26 1.35 1.35 1.37 1.38 1.51 1.64 1.75 1.85 1.73
0.77 1.05 0.69 0.65 0.67 1.08 1.05 0.98 0.70 0.87 0.34 0.44 0.44 0.41 0.48 0.53 0.59 0.84 1.09 1.58 1.39 1.29 1.04 1.27 1.43 1.09 0.83 1.26 1.48 1.08 0.88 1.10 1.00 0.92 0.85 1.02 1.26 1.06 0.89 1.00 0.98 1.00 1.07 1.30
0.38 0.86 0.80 0.74 0.83 0.90 0.63 0.39 0.61 1.23 0.63 0.40 0.30 0.36 0.81 0.85 1.22 1.41 1.68 1.40 1.24 1.35 1.04 0.78 0.54 0.37 0.48 0.62 0.62 0.86 0.75 0.51 0.49 0.60 0.39 0.61 0.75 0.84 0.78 0.81 0.73 0.62 0.58 0.59
0.45 0.71 0.86 1.04 1.02 0.79 0.66 0.65 0.52 0.58 0.31 0.22 0.14 0.63 0.87 1.27 1.27 1.08 0.95 0.88 0.65 0.36 0.17 0.08 0.03 0.03 0.04 0.05 0.09 0.20 0.29 0.26 0.30 0.34 0.27 0.36 0.50 0.39 0.39 0.47 0.52 0.53 0.44 0.47
0.38 0.56 0.77 0.62 0.21 0.17 0.28 0.28 0.20 0.78 0.40 0.27 0.21 0.41 0.22 0.28 0.38 0.32 0.16 0.06 0.02 0.01 0.00 0.01 0.01 0.01 0.01 0.01 0.02 0.02 0.03 0.03 0.04 0.05 0.09 0.15 0.24 0.27 0.21 0.21 0.25 0.20 0.16 0.21
0.29 0.74 0.79 0.77 0.52 0.49 0.65 0.35 0.28 0.62 1.13 0.62 0.31 0.16 0.01 0.01 0.02 0.01 0.01 0.03 0.01 0.00 0.00 0.00 0.00 0.00 0.00 0.00 0.02 0.04 0.04 0.02 0.02 0.02 0.06 0.08 0.08 0.10 0.08 0.10 0.09 0.09 0.08 0.08
0.66 0.61 0.75 0.75 0.74 0.79 0.55 0.31 0.49 1.00 1.36 0.39 0.17 0.03 0.01 0.01 0.03 0.02 0.03 0.04 0.06 0.02 0.01 0.00 0.00 0.00 0.00 0.01 0.05 0.05 0.04 0.02 0.05 0.05 0.05 0.06 0.06 0.07 0.08 0.08 0.06 0.07 0.07 0.07
0.73 0.94 1.21 0.74 0.38 0.93 0.53 0.29 0.37 0.87 0.61 0.58 0.18 0.07 0.02 0.01 0.04 0.10 0.09 0.11 0.06 0.03 0.01 0.00 0.01 0.01 0.01 0.01 0.03 0.04 0.07 0.08 0.08 0.11 0.11 0.09 0.07 0.05 0.05 0.06 0.05 0.05 0.06 0.07
0.47 0.79 0.96 0.56 0.17 0.33 0.34 0.15 0.20 0.19 0.31 0.41 0.17 0.22 0.05 0.02 0.12 0.29 0.17 0.22 0.11 0.06 0.02 0.01 0.01 0.00 0.00 0.00 0.01 0.02 0.06 0.10 0.16 0.15 0.10 0.07 0.06 0.06 0.07 0.06 0.06 0.08 0.09 0.11
0.28 0.45 0.78 0.63 0.37 0.24 0.42 0.26 0.15 0.14 0.20 0.33 0.31 0.19 0.07 0.07 0.29 0.31 0.31 0.30 0.09 0.03 0.01 0.00 0.00 0.00 0.00 0.00 0.01 0.01 0.03 0.06 0.07 0.06 0.04 0.04 0.07 0.10 0.09 0.07 0.05 0.09 0.23 0.40
0.08 0.26 0.46 0.49 0.49 0.51 0.43 0.25 0.11 0.13 0.16 0.21 0.24 0.14 0.04 0.16 0.20 0.13 0.30 0.25 0.11 0.01 0.00 0.00 0.00 0.00 0.00 0.00 0.00 0.01 0.02 0.07 0.16 0.23 0.24 0.20 0.38 0.53 0.37 0.44 0.56 0.63 0.43 0.44
0.03 0.17 0.28 0.18 0.21 0.21 0.08 0.13 0.19 0.13 0.12 0.09 0.10 0.15 0.11 0.08 0.12 0.19 0.13 0.03 0.02 0.02 0.01 0.00 0.00 0.00 0.00 0.00 0.00 0.01 0.02 0.04 0.15 0.33 0.58 0.61 0.65 0.67 0.73 1.09 1.03 1.18 1.08 0.85
0.03 0.09 0.31 0.12 0.11 0.00 0.02 0.05 0.03 0.01 0.05 0.01 0.02 0.04 0.05 0.09 0.30 0.28 0.09 0.02 0.01 0.01 0.01 0.01 0.00 0.00 0.00 0.00 0.03 0.05 0.04 0.08 0.18 0.26 0.22 0.62 0.78 0.63 0.58 0.63 0.64 0.72 0.50 0.52
0.12 0.17 0.26 0.18 0.19 0.00 0.00 0.00 0.00 0.05 0.04 0.00 0.00 0.01 0.03 0.07 0.08 0.08 0.08 0.07 0.03 0.02 0.01 0.01 0.02 0.02 0.04 0.07 0.13 0.25 0.23 0.41 0.54 0.84 0.62 0.66 0.80 0.64 0.47 0.54 0.36 0.36 0.38 0.30
0.03 0.05 0.08 0.12 0.13 0.01 0.00 0.00 0.01 0.02 0.00 0.00 0.00 0.01 0.08 0.08 0.07 0.07 0.01 0.01 0.08 0.17 0.23 0.25 0.18 0.14 0.18 0.22 0.37 0.73 0.67 0.66 0.70 0.64 0.70 0.44 0.40 0.30 0.22 0.15 0.14 0.11 0.06 0.04
0.00 0.00 0.00 0.00 0.00 0.00 0.00 0.00 0.00 0.00 0.00 0.00 0.00 0.01 0.05 0.07 0.18 0.11 0.01 0.01 0.01 0.07 0.28 0.54 0.49 0.45 0.55 0.41 0.44 0.59 0.47 0.29 0.15 0.18 0.13 0.06 0.03 0.02 0.01 0.01 0.00 0.00 0.01 0.01
0.00 0.00 0.01 0.00 0.00 0.00 0.00 0.00 0.00 0.00 0.00 0.00 0.00 0.00 0.00 0.00 0.00 0.00 0.01 0.01 0.02 0.01 0.01 0.02 0.02 0.06 0.15 0.15 0.14 0.18 0.12 0.06 0.03 0.02 0.02 0.02 0.02 0.04 0.01 0.02 0.02 0.02 0.02 0.03
0.01 0.02 0.05 0.02 0.00 0.00 0.00 0.00 0.00 0.00 0.00 0.00 0.00 0.00 0.01 0.01 0.01 0.01 0.03 0.04 0.04 0.05 0.04 0.04 0.04 0.04 0.03 0.01 0.01 0.01 0.01 0.03 0.05 0.06 0.07 0.09 0.11 0.12 0.07 0.05 0.06 0.07 0.06 0.09
0.00 0.04 0.08 0.03 0.00 0.02 0.00 0.00 0.00 0.00 0.00 0.00 0.00 0.01 0.01 0.03 0.04 0.03 0.06 0.08 0.09 0.08 0.07 0.06 0.07 0.07 0.11 0.13 0.11 0.08 0.07 0.08 0.09 0.09 0.09 0.16 0.18 0.23 0.31 0.37 0.32 0.29 0.22 0.20